Tracking 29892 objects as of 21-Nov-2024
HD Live streaming from Space Station
objects crossing your sky now

STARLINK-30881

Track STARLINK-30881 now!
10-day predictions
STARLINK-30881 is classified as:


NORAD ID: 58251
Int'l Code: 2023-171X
Perigee: 565.6 km
Apogee: 566.8 km
Inclination: 43.0 °
Period: 95.8 minutes
Semi major axis: 6937 km
RCS: Unknown
Launch date: November 8, 2023
Source: United States (US)
Launch site: AIR FORCE EASTERN TEST RANGE (AFETR)
Your satellite tracking list
Your tracking list is empty




NASA's NSSDC Master Catalog

Two Line Element Set (TLE):
1 58251U 23171X   24325.45846562  .00000818  00000-0  75586-4 0  9993
2 58251  43.0015 343.1932 0000922 269.6877  90.3859 15.02543160 58384
Source of the keplerian elements: AFSPC